TimePDT,TemperatureF,Dew PointF,Humidity,Sea Level PressureIn,VisibilityMPH,Wind Direction,Wind SpeedMPH,Gust SpeedMPH,PrecipitationIn,Events,Conditions,WindDirDegrees,DateUTC
12:56 AM,54.0,25.2,33,29.97,10.0,South,9.2,-,N/A,,Clear,190,2012-10-25 07:56:00
1:56 AM,54.0,25.2,33,29.98,10.0,SSW,12.7,-,N/A,,Clear,210,2012-10-25 08:56:00
2:56 AM,52.9,25.2,34,29.99,10.0,SW,11.5,-,N/A,,Clear,220,2012-10-25 09:56:00
3:56 AM,48.9,27.1,43,30.00,10.0,Calm,Calm,-,N/A,,Clear,0,2012-10-25 10:56:00
4:56 AM,50.9,26.1,38,30.02,10.0,Calm,Calm,-,N/A,,Clear,0,2012-10-25 11:56:00
6:56 AM,45.9,27.1,48,30.05,10.0,South,6.9,-,N/A,,Clear,180,2012-10-25 13:56:00
8:56 AM,59.0,24.1,26,30.07,10.0,Calm,Calm,-,N/A,,Clear,0,2012-10-25 15:56:00
9:56 AM,59.9,23.0,24,30.08,10.0,Calm,Calm,-,N/A,,Clear,0,2012-10-25 16:56:00
10:56 AM,63.0,22.1,21,30.08,10.0,NNE,5.8,-,N/A,,Clear,30,2012-10-25 17:56:00
11:56 AM,64.9,20.1,18,30.07,10.0,NNE,9.2,-,N/A,,Clear,20,2012-10-25 18:56:00
12:56 PM,66.9,20.1,17,30.04,10.0,ENE,8.1,-,N/A,,Clear,70,2012-10-25 19:56:00
1:56 PM,68.0,19.0,15,30.02,10.0,North,6.9,-,N/A,,Clear,360,2012-10-25 20:56:00
2:56 PM,68.9,19.0,15,30.02,10.0,Calm,Calm,-,N/A,,Clear,0,2012-10-25 21:56:00
3:56 PM,68.9,17.1,14,30.02,10.0,North,6.9,-,N/A,,Clear,10,2012-10-25 22:56:00
4:56 PM,69.8,19.4,15,30.10,10.0,NE,5.8,-,N/A,,Clear,50,2012-10-25 23:56:00
6:56 PM,61.0,25.2,25,30.06,10.0,Calm,Calm,-,N/A,,Clear,0,2012-10-26 01:56:00
7:56 PM,55.9,27.1,33,30.08,10.0,Calm,Calm,-,N/A,,Clear,0,2012-10-26 02:56:00
9:56 PM,56.8,23.0,27,30.11,10.0,Calm,Calm,-,N/A,,Clear,0,2012-10-26 04:56:00
10:56 PM,57.9,20.1,23,30.14,10.0,ENE,12.7,-,N/A,,Clear,60,2012-10-26 05:56:00
11:56 PM,56.8,19.0,23,30.17,10.0,ENE,11.5,-,N/A,,Clear,60,2012-10-26 06:56:00